Dati Storici

Data ora Umidita' aria (%) Temperatura aria (°C) Rad globale (W/m²) Gonioanemometro (°) Tacoanemometro (m/s) Pioggia (mm)
08-11-2012 07:30 83.6 % 4.828 1.404 16.19 0.995 0
08-11-2012 07:20 84 % 4.733 1.288 1.211 0.926 0
08-11-2012 07:10 84.4 % 4.609 1.571 29.18 0.992 0
08-11-2012 07:00 85 % 4.592 1.392 347.213 0.473 0
08-11-2012 06:50 85.5 % 4.716 1.405 343.081 1.335 0
08-11-2012 06:40 86 % 4.603 1.431 158.625 0.786 0
08-11-2012 06:30 86.5 % 4.476 1.469 9.006 0.972 0
08-11-2012 06:20 86.4 % 4.409 1.572 52.542 0.962 0
08-11-2012 06:10 86.9 % 4.607 1.777 11.836 1.099 0
08-11-2012 06:00 87.3 % 4.52 1.726 9.563 0.682 0
08-11-2012 05:50 87.3 % 4.428 1.493 21.271 0.903 0
08-11-2012 05:40 87 % 4.46 1.352 292.447 0.344 0
08-11-2012 05:30 87.1 % 4.666 1.557 10.691 1.095 0
08-11-2012 05:20 87.3 % 4.781 1.66 10.755 1.125 0
08-11-2012 05:10 87.2 % 4.719 1.4 51.437 0.802 0
08-11-2012 05:00 87 % 4.831 1.553 7.484 0.5 0
08-11-2012 04:50 86.8 % 4.932 1.644 352.15 0.424 0
08-11-2012 04:40 86.9 % 5.078 1.585 319.253 0.626 0
08-11-2012 04:30 87.3 % 5.113 1.457 59.098 0.906 0
08-11-2012 04:20 87.2 % 5.069 1.636 1.205 0.391 0

I dati sono presentati in modo automatico a scopo informativo. In seguito a verifica i dati possono subire modifiche o essere invalidati e non riportati negli archivi definitivi.